Regional Weather Roundup
Issued by NWS

Home | Current Version | Previous Version | Text Only | Print | Product List | Glossary Off
Versions: 1 2 3 4 5 6 7 8 9 10 11 12 13 14 15 16 17 18 19 20 21 22 23 24 25 26 27 28 29 30 31 32 33 34 35 36 37 38 39 40 41 42 43 44 45 46 47 48 49 50

000
ASUS45 KSLC 280710
RWRUT

UTAH REGIONAL WEATHER ROUNDUP
NATIONAL WEATHER SERVICE SALT LAKE CITY UT
100 AM MDT TUE JUL 28 2015

UTZ001>011-023>025-280800-

NORTHERN UTAH

CITY           SKY/WX    TMP DP  RH WIND       PRES   REMARKS
BRIGHAM CITY   CLEAR     61  29  29 N8        30.19R
HILL AFB       NOT AVBL
LOGAN            N/A    N/A N/A N/A MISG      30.20R
OGDEN          CLEAR     61  36  39 NE7       30.17R
PROVO AIRPORT  CLEAR     64  39  39 NW17      30.15R
SALT LAKE CITY CLEAR     61  40  45 N10       30.15R
VERNAL         CLEAR     63  32  31 E6        30.11R
WENDOVER       CLEAR     64  23  20 NE13      30.18R
HEBER CITY     CLEAR     59  34  38 NE9       30.21R
WEST JORDAN    CLEAR     63  36  36 NW13      30.18R

$$

UTZ012>022-026-027-280800-

SOUTHERN/CENTRAL UTAH

CITY           SKY/WX    TMP DP  RH WIND       PRES   REMARKS
BLANDING       CLEAR     62  26  25 NW7       30.16S
BRYCE CANYON   CLEAR     50  23  34 CALM      30.28R
CEDAR CITY     CLEAR     61  31  32 E7        30.15R
DELTA          CLEAR     64  36  36 NE9       30.14R
HANKSVILLE     CLEAR     72  32  23 N6        30.04R
MILFORD        CLEAR     63  30  28 N12       30.13R
MOAB/CYNLANDS  CLEAR     76  32  20 N9        30.01R
PRICE          CLEAR     67  31  26 NW7       30.14R
ST GEORGE      SUNNY     79  30  17 E6        29.92S
KANAB          CLEAR     61  34  36 E5        30.13R

$$

REGIONAL REPORTS     COLORADO/ARIZONA

CITY           SKY/WX    TMP DP  RH WIND       PRES   REMARKS
CRAIG, CO      CLEAR     52  33  48 W7        30.23R
GRAND JUNCTION CLEAR     65  34  31 SE5       30.03R
RIFLE          CLEAR     69  34  27 N6        30.10R
MONTROSE       CLEAR     65  36  34 SE13      30.10S
CORTEZ         CLEAR     57  37  47 NE6       30.12R
PAGE, AZ       CLEAR     83  24  11 W3        30.00R
GRAND CANYON   CLEAR     45  20  36 E3        30.24S
KINGMAN        CLEAR     70  14  11 SE10      29.98S
FLAGSTAFF      CLEAR     55  42  61 CALM      30.27S

$$

REGIONAL REPORTS    NEVADA/IDAHO/WYOMING

CITY           SKY/WX    TMP DP  RH WIND       PRES   REMARKS
LAS VEGAS, NV  CLEAR     89  31  12 S5        29.80R
ELY            CLEAR     59  27  29 N9        30.22R
ELKO           CLEAR     58  27  30 N5        30.22R
POCATELLO, ID  CLEAR     45  43  93 W3        30.22R
BURLEY         CLEAR     46  38  73 CALM      30.20R
EVANSTON, WY   CLEAR     49  32  52 NW6       30.29S
ROCK SPRINGS   CLEAR     55  33  43 W16       30.23R
KEMMERER       CLEAR     45  23  42 W12       30.28S

$$



USA.gov is the U.S. government's official web portal to all federal, state and local government web resources and services.